Location: Unspecified
(48.1170°N, 0.0000°E)
Time: 05:31:13
(UTC+00:00)

JY1SAT - Pass Details

Date: 20 September 2019
Orbit: 572 x 591 km, 97.7° (Epoch: 18 October)

Event Time Altitude Azimuth Distance (km) Brightness Sun altitude
Exits shadow 22:28:10 12° 328° (NNW) 1,771 ? -37.6°
Drops below altitude 10° 22:28:30 10° 330° (NNW) 1,895 ? -37.6°
Sets 22:30:49 0° 339° (NNW) 2,801 ? -37.8°
